Starlink 31999

operational
NORAD ID: 60101 Int'l Des: 2024-117 Owner: SPXS Country: US Constellation: starlink
LEOCIRCULAR

关于 Starlink 31999

正在加载描述...

实时位置

正在加载3D地球...

即将过境

高度历史

Altitude vs Time

uPlot chart will show altitude changes over time

两行轨道根数

1 60101U 24117L 25303.26180358 -.00001115 00000-0 -25538-4 0 9996
2 60101 53.1610 283.2178 0001528 89.2729 270.8447 15.30182531 76914
Epoch: Oct 30, 2025 • Age: 21 hours

当前状态

高度 478.1 km
速度 7.63 km/s
星下点 40.53°N, 124.33°W
发射日期 Jun 23, 2024
运行时间 1.3 years
类型 internet

技术详情

分类 Payload
质量 730.00 kg
干质量 700.00 kg
总质量 730.00 kg
长度 0.30 m
直径 4.10 m
跨度 29.00 m
形状 Box + pan
制造商 SPXS
平台类型 Starlink V2M
阶段状态 In Orbit
所有者/国家 SPXS/US

大型星座

Loading constellations...